Time,TemperatureF,DewpointF,PressureIn,WindDirection,WindDirectionDegrees,WindSpeedMPH,WindSpeedGustMPH,Humidity,HourlyPrecipIn,Conditions,Clouds,dailyrainin,SoftwareType,DateUTC
2013-07-03 00:00:00,71.3,70.7,30.20,SE,132,2.0,2.0,98,0.00,,,0.15,Wunderground v.1.15,2013-07-03 04:00:00,
2013-07-03 00:10:00,71.4,70.8,30.20,SSE,148,2.0,2.0,98,0.00,,,0.15,Wunderground v.1.15,2013-07-03 04:10:00,
2013-07-03 00:20:00,71.4,70.8,30.20,ESE,114,2.0,5.0,98,0.00,,,0.00,Wunderground v.1.15,2013-07-03 04:20:00,
2013-07-03 00:30:00,71.5,70.9,30.20,SE,131,2.0,3.0,98,0.00,,,0.00,Wunderground v.1.15,2013-07-03 04:30:00,
2013-07-03 00:40:00,71.5,70.9,30.20,ESE,121,2.0,2.0,98,0.00,,,0.00,Wunderground v.1.15,2013-07-03 04:40:00,
2013-07-03 00:50:00,71.5,70.9,30.20,SE,131,2.0,2.0,98,0.00,,,0.00,Wunderground v.1.15,2013-07-03 04:50:00,
2013-07-03 01:00:00,71.5,70.9,30.20,SE,143,1.0,1.0,98,0.00,,,0.00,Wunderground v.1.15,2013-07-03 05:00:00,
2013-07-03 01:10:00,71.5,70.9,30.20,SSW,194,1.0,1.0,98,0.00,,,0.00,Wunderground v.1.15,2013-07-03 05:10:00,
2013-07-03 01:20:00,71.5,70.9,30.20,SSE,152,1.0,1.0,98,0.00,,,0.00,Wunderground v.1.15,2013-07-03 05:20:00,
2013-07-03 01:30:00,71.6,71.0,30.19,ESE,121,1.0,1.0,98,0.00,,,0.00,Wunderground v.1.15,2013-07-03 05:30:00,
2013-07-03 01:40:00,71.6,71.0,30.19,SW,214,1.0,7.0,98,0.00,,,0.00,Wunderground v.1.15,2013-07-03 05:40:00,
2013-07-03 01:50:00,71.6,71.0,30.19,SW,214,0.0,7.0,98,0.00,,,0.00,Wunderground v.1.15,2013-07-03 05:50:00,
2013-07-03 02:00:00,71.6,71.0,30.19,ESE,123,0.0,0.0,98,0.00,,,0.00,Wunderground v.1.15,2013-07-03 06:00:00,
2013-07-03 02:10:00,71.7,71.1,30.19,ESE,123,0.0,0.0,98,0.00,,,0.00,Wunderground v.1.15,2013-07-03 06:10:00,
2013-07-03 02:30:00,71.7,71.1,30.19,ESE,107,1.0,2.0,98,0.00,,,0.00,Wunderground v.1.15,2013-07-03 06:30:00,
2013-07-03 02:40:00,71.8,71.2,30.19,SE,135,1.0,5.0,98,0.00,,,0.00,Wunderground v.1.15,2013-07-03 06:40:00,
2013-07-03 02:50:00,71.8,70.9,30.19,SSE,152,2.0,5.0,97,0.00,,,0.00,Wunderground v.1.15,2013-07-03 06:50:00,
2013-07-03 03:00:00,71.8,70.9,30.19,SSE,154,2.0,2.0,97,0.00,,,0.00,Wunderground v.1.15,2013-07-03 07:00:00,
2013-07-03 03:10:00,71.8,70.9,30.19,SSW,207,1.0,1.0,97,0.00,,,0.00,Wunderground v.1.15,2013-07-03 07:10:00,
2013-07-03 03:20:00,71.8,70.9,30.19,SE,142,1.0,1.0,97,0.00,,,0.00,Wunderground v.1.15,2013-07-03 07:20:00,
2013-07-03 03:40:00,71.6,70.7,30.18,SSW,196,2.0,2.0,97,0.00,,,0.00,Wunderground v.1.15,2013-07-03 07:40:00,
2013-07-03 03:50:00,71.5,70.6,30.18,SE,125,1.0,1.0,97,0.00,,,0.00,Wunderground v.1.15,2013-07-03 07:50:00,
2013-07-03 04:20:00,71.4,70.8,30.18,SSE,149,0.0,1.0,98,0.24,,,0.05,Wunderground v.1.15,2013-07-03 08:20:00,
2013-07-03 04:30:00,71.4,70.8,30.17,SE,134,1.0,1.0,98,0.26,,,0.09,Wunderground v.1.15,2013-07-03 08:30:00,
2013-07-03 04:50:00,71.2,70.6,30.18,SE,126,1.0,7.0,98,0.70,,,0.18,Wunderground v.1.15,2013-07-03 08:50:00,
2013-07-03 05:00:00,71.1,70.5,30.18,South,189,0.0,0.0,98,0.49,,,0.28,Wunderground v.1.15,2013-07-03 09:00:00,
2013-07-03 05:10:00,71.0,70.4,30.18,South,189,0.0,1.0,98,0.41,,,0.34,Wunderground v.1.15,2013-07-03 09:10:00,
2013-07-03 05:20:00,70.9,70.3,30.18,SSE,162,0.0,0.0,98,0.14,,,0.39,Wunderground v.1.15,2013-07-03 09:20:00,
2013-07-03 05:30:00,70.9,70.3,30.19,SSE,162,0.0,0.0,98,0.09,,,0.40,Wunderground v.1.15,2013-07-03 09:30:00,
2013-07-03 05:40:00,70.8,70.2,30.19,SSE,162,0.0,3.0,98,0.04,,,0.40,Wunderground v.1.15,2013-07-03 09:40:00,
2013-07-03 05:50:00,70.8,70.2,30.19,SSE,162,0.0,3.0,98,0.00,,,0.40,Wunderground v.1.15,2013-07-03 09:50:00,
2013-07-03 06:00:00,70.8,70.2,30.19,SSE,162,0.0,0.0,98,0.00,,,0.40,Wunderground v.1.15,2013-07-03 10:00:00,
2013-07-03 06:10:00,70.8,70.2,30.19,SSE,162,0.0,0.0,98,0.00,,,0.40,Wunderground v.1.15,2013-07-03 10:10:00,
2013-07-03 06:20:00,70.8,70.2,30.19,SSE,162,0.0,0.0,98,0.00,,,0.40,Wunderground v.1.15,2013-07-03 10:20:00,
2013-07-03 06:30:00,70.8,70.2,30.20,SSE,162,0.0,0.0,98,0.00,,,0.41,Wunderground v.1.15,2013-07-03 10:30:00,
2013-07-03 06:40:00,70.8,70.5,30.20,SSE,162,0.0,2.0,99,0.06,,,0.42,Wunderground v.1.15,2013-07-03 10:40:00,
2013-07-03 06:50:00,70.9,70.6,30.20,SSE,162,0.0,2.0,99,0.12,,,0.45,Wunderground v.1.15,2013-07-03 10:50:00,
2013-07-03 07:00:00,70.9,70.6,30.20,SSE,162,0.0,0.0,99,0.04,,,0.46,Wunderground v.1.15,2013-07-03 11:00:00,
2013-07-03 07:10:00,71.0,70.7,30.20,SSE,162,0.0,0.0,99,0.22,,,0.50,Wunderground v.1.15,2013-07-03 11:10:00,
2013-07-03 07:20:00,71.1,70.8,30.21,SSE,161,0.0,2.0,99,0.88,,,0.55,Wunderground v.1.15,2013-07-03 11:20:00,
2013-07-03 07:30:00,71.1,70.8,30.21,SSE,161,0.0,0.0,99,0.14,,,0.62,Wunderground v.1.15,2013-07-03 11:30:00,
2013-07-03 07:40:00,71.1,70.8,30.22,SSE,161,0.0,0.0,99,0.11,,,0.63,Wunderground v.1.15,2013-07-03 11:40:00,
2013-07-03 07:50:00,71.1,70.8,30.22,SSE,161,0.0,0.0,99,0.04,,,0.63,Wunderground v.1.15,2013-07-03 11:50:00,
2013-07-03 08:00:00,71.3,71.0,30.23,SSE,161,0.0,0.0,99,0.17,,,0.67,Wunderground v.1.15,2013-07-03 12:00:00,
2013-07-03 08:10:00,71.3,71.0,30.23,SSE,161,0.0,1.0,99,0.08,,,0.69,Wunderground v.1.15,2013-07-03 12:10:00,
2013-07-03 08:20:00,71.4,71.1,30.23,SSE,161,1.0,1.0,99,0.10,,,0.70,Wunderground v.1.15,2013-07-03 12:20:00,
2013-07-03 08:30:00,71.5,71.2,30.23,SSE,161,0.0,0.0,99,0.04,,,0.70,Wunderground v.1.15,2013-07-03 12:30:00,
2013-07-03 08:40:00,71.6,71.3,30.23,SSE,161,0.0,2.0,99,0.00,,,0.70,Wunderground v.1.15,2013-07-03 12:40:00,
2013-07-03 08:50:00,71.7,71.4,30.24,SSE,161,0.0,2.0,99,0.00,,,0.70,Wunderground v.1.15,2013-07-03 12:50:00,
2013-07-03 09:00:00,71.9,71.6,30.24,SSE,161,0.0,0.0,99,0.00,,,0.70,Wunderground v.1.15,2013-07-03 13:00:00,
2013-07-03 09:10:00,72.2,71.9,30.25,SSE,161,0.0,0.0,99,0.00,,,0.70,Wunderground v.1.15,2013-07-03 13:10:00,
2013-07-03 09:20:00,72.2,71.9,30.25,SSE,161,0.0,0.0,99,0.00,,,0.70,Wunderground v.1.15,2013-07-03 13:20:00,
2013-07-03 09:30:00,72.4,72.1,30.25,SSE,161,0.0,0.0,99,0.00,,,0.70,Wunderground v.1.15,2013-07-03 13:30:00,
2013-07-03 09:40:00,72.6,72.3,30.25,SSE,161,0.0,2.0,99,0.00,,,0.70,Wunderground v.1.15,2013-07-03 13:40:00,
2013-07-03 09:50:00,72.7,72.4,30.25,SSE,161,0.0,2.0,99,0.00,,,0.71,Wunderground v.1.15,2013-07-03 13:50:00,
2013-07-03 10:00:00,72.9,72.6,30.25,SSE,161,0.0,0.0,99,0.07,,,0.72,Wunderground v.1.15,2013-07-03 14:00:00,
2013-07-03 10:10:00,73.0,72.7,30.25,SSE,161,0.0,0.0,99,0.04,,,0.72,Wunderground v.1.15,2013-07-03 14:10:00,
2013-07-03 10:20:00,73.3,73.0,30.25,SSE,161,0.0,0.0,99,0.00,,,0.72,Wunderground v.1.15,2013-07-03 14:20:00,
2013-07-03 10:30:00,73.6,73.3,30.25,SSE,161,0.0,0.0,99,0.00,,,0.72,Wunderground v.1.15,2013-07-03 14:30:00,
2013-07-03 10:40:00,73.8,73.5,30.25,SSE,161,0.0,1.0,99,0.00,,,0.72,Wunderground v.1.15,2013-07-03 14:40:00,
2013-07-03 10:50:00,74.1,73.8,30.25,ENE,69,1.0,1.0,99,0.00,,,0.72,Wunderground v.1.15,2013-07-03 14:50:00,
2013-07-03 11:00:00,74.7,74.4,30.25,ENE,69,0.0,0.0,99,0.00,,,0.72,Wunderground v.1.15,2013-07-03 15:00:00,
2013-07-03 11:10:00,75.3,75.0,30.25,SE,141,1.0,1.0,99,0.00,,,0.72,Wunderground v.1.15,2013-07-03 15:10:00,
2013-07-03 11:20:00,75.3,74.7,30.25,North,355,1.0,3.0,98,0.00,,,0.72,Wunderground v.1.15,2013-07-03 15:20:00,
2013-07-03 11:30:00,75.3,74.4,30.25,North,350,2.0,2.0,97,0.00,,,0.72,Wunderground v.1.15,2013-07-03 15:30:00,
2013-07-03 11:40:00,75.7,74.8,30.25,NNW,347,1.0,1.0,97,0.00,,,0.72,Wunderground v.1.15,2013-07-03 15:40:00,
2013-07-03 11:50:00,76.2,75.0,30.25,South,184,1.0,1.0,96,0.00,,,0.72,Wunderground v.1.15,2013-07-03 15:50:00,
2013-07-03 12:00:00,76.6,74.7,30.25,NW,313,1.0,1.0,94,0.00,,,0.72,Wunderground v.1.15,2013-07-03 16:00:00,
2013-07-03 12:10:00,76.9,75.0,30.25,NW,313,1.0,1.0,94,0.00,,,0.72,Wunderground v.1.15,2013-07-03 16:10:00,
2013-07-03 12:20:00,77.5,75.3,30.24,North,349,2.0,2.0,93,0.00,,,0.72,Wunderground v.1.15,2013-07-03 16:20:00,
2013-07-03 12:30:00,78.6,74.7,30.24,SSW,208,1.0,1.0,88,0.00,,,0.72,Wunderground v.1.15,2013-07-03 16:30:00,
2013-07-03 12:40:00,79.5,76.3,30.24,SSW,198,1.0,4.0,90,0.00,,,0.72,Wunderground v.1.15,2013-07-03 16:40:00,
2013-07-03 12:50:00,79.8,74.9,30.24,ESE,123,2.0,2.0,85,0.00,,,0.72,Wunderground v.1.15,2013-07-03 16:50:00,
2013-07-03 13:00:00,80.4,74.8,30.24,West,277,1.0,1.0,83,0.00,,,0.72,Wunderground v.1.15,2013-07-03 17:00:00,
2013-07-03 13:10:00,81.2,75.9,30.24,NNE,20,1.0,1.0,84,0.00,,,0.72,Wunderground v.1.15,2013-07-03 17:10:00,
2013-07-03 13:20:00,81.0,75.0,30.23,SE,124,2.0,3.0,82,0.00,,,0.72,Wunderground v.1.15,2013-07-03 17:20:00,
2013-07-03 13:30:00,80.7,74.3,30.23,NNE,26,1.0,3.0,81,0.00,,,0.72,Wunderground v.1.15,2013-07-03 17:30:00,
2013-07-03 13:40:00,80.6,73.9,30.23,NNE,12,2.0,5.0,80,0.00,,,0.72,Wunderground v.1.15,2013-07-03 17:40:00,
2013-07-03 13:50:00,80.6,74.6,30.23,ESE,121,1.0,5.0,82,0.00,,,0.72,Wunderground v.1.15,2013-07-03 17:50:00,
2013-07-03 14:00:00,80.4,74.4,30.23,NNW,336,1.0,1.0,82,0.00,,,0.72,Wunderground v.1.15,2013-07-03 18:00:00,
2013-07-03 14:10:00,80.5,75.2,30.23,North,5,1.0,1.0,84,0.00,,,0.72,Wunderground v.1.15,2013-07-03 18:10:00,
2013-07-03 14:20:00,81.7,74.2,30.24,South,169,2.0,6.0,78,0.00,,,0.72,Wunderground v.1.15,2013-07-03 18:20:00,
2013-07-03 14:30:00,82.1,74.6,30.23,ESE,105,3.0,3.0,78,0.00,,,0.72,Wunderground v.1.15,2013-07-03 18:30:00,
2013-07-03 14:40:00,82.8,75.2,30.23,SSW,200,2.0,6.0,78,0.00,,,0.72,Wunderground v.1.15,2013-07-03 18:40:00,
2013-07-03 14:50:00,82.9,76.1,30.22,SW,215,2.0,6.0,80,0.00,,,0.72,Wunderground v.1.15,2013-07-03 18:50:00,
2013-07-03 15:01:00,83.3,74.5,30.22,SE,138,3.0,3.0,75,0.00,,,0.72,Wunderground v.1.15,2013-07-03 19:01:00,
2013-07-03 15:10:00,83.4,74.2,30.22,SE,131,3.0,3.0,74,0.00,,,0.72,Wunderground v.1.15,2013-07-03 19:10:00,
2013-07-03 15:20:00,84.0,75.6,30.22,WNW,288,2.0,2.0,76,0.00,,,0.72,Wunderground v.1.15,2013-07-03 19:20:00,
2013-07-03 15:30:00,83.5,74.3,30.22,SSE,165,2.0,2.0,74,0.00,,,0.72,Wunderground v.1.15,2013-07-03 19:30:00,
2013-07-03 15:40:00,83.5,75.5,30.22,SSE,148,2.0,8.0,77,0.00,,,0.72,Wunderground v.1.15,2013-07-03 19:40:00,
2013-07-03 15:50:00,83.4,74.2,30.22,South,172,3.0,3.0,74,0.00,,,0.72,Wunderground v.1.15,2013-07-03 19:50:00,
2013-07-03 16:00:00,83.2,74.0,30.22,ESE,112,2.0,2.0,74,0.00,,,0.72,Wunderground v.1.15,2013-07-03 20:00:00,
2013-07-03 16:10:00,83.1,74.4,30.22,SSE,154,2.0,2.0,75,0.00,,,0.72,Wunderground v.1.15,2013-07-03 20:10:00,
2013-07-03 16:20:00,82.9,74.6,30.22,SE,128,2.0,3.0,76,0.00,,,0.72,Wunderground v.1.15,2013-07-03 20:20:00,
2013-07-03 16:30:00,82.4,76.0,30.22,SSE,166,3.0,6.0,81,0.00,,,0.72,Wunderground v.1.15,2013-07-03 20:30:00,
2013-07-03 16:40:00,81.6,76.3,30.22,South,176,2.0,2.0,84,0.00,,,0.72,Wunderground v.1.15,2013-07-03 20:40:00,
2013-07-03 16:50:00,80.8,75.2,30.22,SE,138,1.0,8.0,83,0.00,,,0.72,Wunderground v.1.15,2013-07-03 20:50:00,
2013-07-03 17:00:00,80.3,75.0,30.21,SSW,192,1.0,1.0,84,0.00,,,0.72,Wunderground v.1.15,2013-07-03 21:00:00,
2013-07-03 17:10:00,80.0,75.1,30.21,SE,143,1.0,1.0,85,0.00,,,0.72,Wunderground v.1.15,2013-07-03 21:10:00,
2013-07-03 17:20:00,79.7,74.8,30.22,SSW,192,1.0,1.0,85,0.00,,,0.72,Wunderground v.1.15,2013-07-03 21:20:00,
2013-07-03 17:30:00,79.5,74.9,30.22,ESE,115,1.0,1.0,86,0.00,,,0.72,Wunderground v.1.15,2013-07-03 21:30:00,
2013-07-03 17:40:00,78.8,74.9,30.23,SSE,163,1.0,7.0,88,0.68,,,0.77,Wunderground v.1.15,2013-07-03 21:40:00,
2013-07-03 17:50:00,77.2,74.4,30.23,SW,215,2.0,7.0,91,1.11,,,0.89,Wunderground v.1.15,2013-07-03 21:50:00,
2013-07-03 18:00:00,75.7,73.5,30.23,South,169,2.0,3.0,93,0.89,,,1.06,Wunderground v.1.15,2013-07-03 22:00:00,
2013-07-03 18:10:00,74.6,72.8,30.22,SSW,202,2.0,2.0,94,0.80,,,1.19,Wunderground v.1.15,2013-07-03 22:10:00,
2013-07-03 18:20:00,73.9,72.4,30.22,SSE,148,0.0,0.0,95,0.18,,,1.26,Wunderground v.1.15,2013-07-03 22:20:00,
2013-07-03 18:31:00,73.8,72.6,30.22,SSE,148,0.0,0.0,96,0.06,,,1.27,Wunderground v.1.15,2013-07-03 22:31:00,
2013-07-03 18:40:00,73.7,72.8,30.21,SSE,148,0.0,4.0,97,0.04,,,1.28,Wunderground v.1.15,2013-07-03 22:40:00,
2013-07-03 18:50:00,73.8,72.9,30.21,SSE,148,0.0,4.0,97,0.04,,,1.28,Wunderground v.1.15,2013-07-03 22:50:00,
2013-07-03 19:00:00,73.8,72.9,30.21,SSE,148,0.0,0.0,97,0.00,,,1.28,Wunderground v.1.15,2013-07-03 23:00:00,
2013-07-03 19:10:00,74.0,73.4,30.22,SSE,148,1.0,1.0,98,0.00,,,1.28,Wunderground v.1.15,2013-07-03 23:10:00,
2013-07-03 19:20:00,74.0,73.1,30.22,SSE,148,0.0,0.0,97,0.00,,,1.28,Wunderground v.1.15,2013-07-03 23:20:00,
2013-07-03 19:30:00,73.9,73.3,30.22,SSE,148,0.0,0.0,98,0.00,,,1.28,Wunderground v.1.15,2013-07-03 23:30:00,
2013-07-03 19:40:00,73.8,73.2,30.23,SSE,148,0.0,2.0,98,0.00,,,1.28,Wunderground v.1.15,2013-07-03 23:40:00,
2013-07-03 20:00:00,73.9,73.3,30.23,SSE,148,0.0,0.0,98,0.00,,,1.28,Wunderground v.1.15,2013-07-04 00:00:00,
2013-07-03 20:10:00,74.0,73.4,30.23,SSE,148,0.0,0.0,98,0.00,,,1.28,Wunderground v.1.15,2013-07-04 00:10:00,
2013-07-03 20:20:00,74.0,73.4,30.23,SSE,148,0.0,0.0,98,0.00,,,1.28,Wunderground v.1.15,2013-07-04 00:20:00,
2013-07-03 20:30:00,73.9,73.3,30.23,SSE,148,0.0,0.0,98,0.00,,,1.28,Wunderground v.1.15,2013-07-04 00:30:00,
2013-07-03 20:40:00,73.7,73.1,30.23,SSE,148,0.0,2.0,98,0.00,,,1.28,Wunderground v.1.15,2013-07-04 00:40:00,
2013-07-03 20:50:00,73.6,73.0,30.23,SSE,148,0.0,2.0,98,0.00,,,1.28,Wunderground v.1.15,2013-07-04 00:50:00,
2013-07-03 21:00:00,73.5,72.9,30.24,SSE,148,0.0,0.0,98,0.00,,,1.28,Wunderground v.1.15,2013-07-04 01:00:00,
2013-07-03 21:10:00,73.4,72.8,30.24,SSE,148,0.0,0.0,98,0.00,,,1.28,Wunderground v.1.15,2013-07-04 01:10:00,
2013-07-03 21:20:00,73.4,72.8,30.24,SSE,148,0.0,0.0,98,0.00,,,1.28,Wunderground v.1.15,2013-07-04 01:20:00,
2013-07-03 21:30:00,73.5,72.9,30.24,SSE,148,0.0,0.0,98,0.00,,,1.28,Wunderground v.1.15,2013-07-04 01:30:00,
2013-07-03 21:40:00,73.4,72.8,30.24,SSE,148,0.0,0.0,98,0.00,,,1.28,Wunderground v.1.15,2013-07-04 01:40:00,
2013-07-03 21:50:00,73.2,72.6,30.24,SSE,148,0.0,0.0,98,0.00,,,1.28,Wunderground v.1.15,2013-07-04 01:50:00,
2013-07-03 22:00:00,73.2,72.6,30.25,SSE,148,0.0,0.0,98,0.00,,,1.28,Wunderground v.1.15,2013-07-04 02:00:00,
2013-07-03 22:10:00,73.3,73.0,30.25,SSE,148,0.0,2.0,99,0.00,,,1.28,Wunderground v.1.15,2013-07-04 02:10:00,
2013-07-03 22:20:00,73.7,73.4,30.25,SSE,147,1.0,1.0,99,0.00,,,1.28,Wunderground v.1.15,2013-07-04 02:20:00,
2013-07-03 22:30:00,73.5,72.9,30.25,SSE,147,0.0,0.0,98,0.00,,,1.28,Wunderground v.1.15,2013-07-04 02:30:00,
2013-07-03 22:40:00,73.4,72.8,30.25,SSE,147,0.0,1.0,98,0.00,,,1.28,Wunderground v.1.15,2013-07-04 02:40:00,
2013-07-03 22:50:00,73.5,73.2,30.25,SSE,147,0.0,1.0,99,0.00,,,1.28,Wunderground v.1.15,2013-07-04 02:50:00,
2013-07-03 23:01:00,73.5,73.2,30.25,SSE,147,0.0,0.0,99,0.00,,,1.28,Wunderground v.1.15,2013-07-04 03:01:00,
2013-07-03 23:10:00,73.4,73.1,30.25,SSE,147,0.0,0.0,99,0.00,,,1.28,Wunderground v.1.15,2013-07-04 03:10:00,
2013-07-03 23:20:00,73.1,72.5,30.25,SSE,147,0.0,0.0,98,0.00,,,1.28,Wunderground v.1.15,2013-07-04 03:20:00,
2013-07-03 23:30:00,73.1,72.8,30.26,SSE,147,0.0,0.0,99,0.00,,,1.28,Wunderground v.1.15,2013-07-04 03:30:00,
2013-07-03 23:40:00,73.1,72.8,30.26,SSE,147,0.0,3.0,99,0.00,,,1.28,Wunderground v.1.15,2013-07-04 03:40:00,
2013-07-03 23:50:00,73.2,72.9,30.26,SSE,147,0.0,3.0,99,0.00,,,1.28,Wunderground v.1.15,2013-07-04 03:50:00,